SCP
0 0 0 0 0 0 0 0 0 0 -0 -0 0 0 0 0 0 -0 -0 -0 -0 -0 -0 -0 -0 -0 -0 -0 -0 0 0 0 0 0 0 -0 -0 0 0 0 0 -0 -0 -0
0 0 0 0 0 0 0 0 0 0 0 0 0 0 0 0 -0 -0 -0 -0 -0 -0 -0 -0 -0 -0 -0 -0 -0 -0 0 0 0 0 0 0 -0 -0 0 0 0 -0 -0 -0
0 0 0 0 0 0 0 0 0 0 0 0 0 0 0 0 -0 -0 -0 -0 -0 -0 -0 -0 -0 -0 -0 -0 -0 -0 -0 0 0 0 0 0 0 -0 0 0 0 -0 -0 0
0 0 0 0 0 0 0 0 0 0 0 0 0 0 0 0 0 0 -0 -0 -0 -0 -0 -0 -0 -0 -0 -0 -0 -0 -0 -0 0 0 0 0 0 -0 -0 0 0 0 0 0
0 0 0 0 0 0 0 0 0 0 0 0 0 0 0 0 0 0 -0 -0 -0 -0 -0 -0 -0 -0 -0 -0 -0 -0 -0 -0 0 0 0 0 0 0 0 0 0 0 0 0
0 0 0 0 0 0 0 0 0 0 0 0 -0 0 0 0 0 -0 0 -0 -0 -0 -0 -0 -0 -0 -0 -0 -0 -0 -0 -0 0 0 0 0 0 0 0 0 0 0 0 0
0 0 0 0 0 0 0 0 0 0 0 0 0 0 -0 0 0 -0 -0 -0 -0 -0 -0 -0 -0 -0 -0 -0 -0 -0 -0 -0 -0 0 0 0 0 0 0 0 0 0 0 0
0 0 0 0 0 0 0 0 0 0 0 0 0 0 -0 0 -0 -0 -0 -0 -0 -0 -0 -0 -0 -0 -0 -0 -0 -0 -0 -0 -0 -0 -0 -0 -0 0 0 0 0 0 0 0
0 0 0 0 0 0 0 0 0 0 0 0 0 0 -0 -0 0 0 -0 -0 -0 -0 -0 -0 -0 -0 -0 -0 -0 -0 -0 -0 -0 -0 -0 -0 0 0 0 0 0 0 0 0
0 0 0 0 0 0 0 0 0 0 0 0 0 0 0 0 -0 0 -0 0 0 -0 -0 -0 -0 -0 -0 -0 -0 -0 -0 -0 -0 -0 -0 -0 0 0 0 0 0 0 0 0
0 0 0 0 0 0 0 0 0 0 0 0 0 0 0 0 0 0 -0 0 0 -0 -0 -0 -0 -0 -0 -0 -0 -0 -0 -0 -0 -0 -0 -0 0 0 0 0 0 0 0 0
0 0 0 0 0 0 0 0 0 0 0 0 0 0 0 0 0 0 0 0 0 0 0 -0 -0 -0 -0 -0 -0 -0 -0 -0 -0 -0 -0 -0 0 -0 -0 -0 0 -0 -0 -0
0 0 0 0 0 0 0 0 0 0 0 0 0 0 0 0 0 0 0 0 0 0 -0 -0 -0 -0 -0 -0 -0 -0 -0 -0 -0 -0 -0 -0 -0 -0 -0 -0 -0 0 0 0
0 0 0 0 0 0 0 0 0 0 0 0 0 0 0 0 0 0 0 0 0 0 0 0 -0 -0 -0 -0 -0 -0 -0 -0 0 0 0 0 -0 -0 -0 -0 0 0 -0 0
0 0 0 0 0 0 0 0 0 0 0 0 0 0 0 0 0 0 0 0 0 0 0 0 0 0 -0 -0 0 0 -0 0 0 0 0 0 0 -0 -0 -0 -0 -0 -0 -0
0 0 0 0 0 0 0 0 0 0 0 0 0 0 0 0 0 0 0 0 0 0 0 0 0 0 0 0 0 0 0 0 0 0 0 0 0 -0 -0 -0 -0 -0 0 -0
0 0 0 0 0 0 0 0 0 0 0 0 0 0 0 0 0 0 0 0 0 0 0 0 0 0 0 0 0 0 0 0 0 0 0 0 0 0 0 0 0 0 0 0
0 0 -0 0 -0 0 0 0 0 0 0 0 0 0 0 0 0 0 0 0 0 0 0 0 0 0 0 0 0 0 0 0 0 0 0 0 0 0 0 0 0 0 0 0
0 0 0 0 0 0 0 0 0 0 0 0 0 0 0 0 0 0 1 1 0 0 0 0 0 0 0 0 0 0 0 0 0 0 0 0 0 0 0 0 0 0 0 0
0 0 0 0 0 0 0 0 0 0 0 0 0 0 0 0 0 0 1 1 0 0 0 0 0 0 0 0 0 0 0 0 0 0 0 0 0 0 0 0 0 0 0 0
0 0 0 0 0 0 0 0 0 0 0 0 0 0 0 0 0 0 0 1 0 0 0 0 0 0 0 0 0 0 0 0 0 0 0 0 0 0 0 0 0 0 0 0
0 0 0 0 0 0 0 0 0 0 0 0 0 0 0 0 0 0 0 0 0 0 0 0 0 0 0 0 0 0 0 0 0 0 0 0 0 0 0 0 0 0 0 0
0 0 0 0 0 0 0 0 0 0 0 0 0 0 0 0 0 0 0 0 0 0 0 0 0 0 0 0 0 0 0 0 0 0 0 0 0 0 0 0 0 0 0 0
-0 0 -0 0 0 0 0 0 0 0 0 0 0 0 0 0 0 0 0 0 0 0 0 0 0 0 0 0 0 0 0 0 0 0 0 0 0 0 0 0 0 0 0 0
0 -0 -0 -0 0 -0 0 0 0 0 0 0 0 0 0 0 0 0 0 0 0 0 0 0 0 0 0 0 0 0 0 0 0 -0 0 0 0 0 0 0 0 0 0 0
-0 -0 -0 0 0 0 -0 0 0 0 0 0 0 0 0 0 0 0 0 0 0 0 0 0 0 0 0 0 0 0 0 0 0 0 -0 0 0 0 0 0 0 0 0 0
-0 -0 -0 -0 0 -0 0 0 0 0 0 0 0 0 0 0 0 0 0 0 0 0 0 0 0 0 0 0 0 0 0 0 0 0 0 0 0 0 0 0 0 0 0 0
Wind_Speed_500mb
28 24 14 5 41 48 49 39 30 21 44 43 29 20 1 14 34 40 44 48 54 58 56 54 52 45 36 34 31 26 18 15 13 14 11 12 12 16 17 19 22 24 26 25
16 15 15 16 13 37 46 45 39 22 34 36 24 5 9 24 38 45 48 50 53 58 59 59 54 49 42 38 36 30 21 16 17 18 15 13 16 15 18 20 19 23 24 24
26 8 10 18 28 22 27 43 41 36 32 12 17 17 18 33 45 54 53 55 60 66 67 63 55 52 48 41 40 34 26 19 22 21 18 16 16 16 16 15 14 17 21 23
5 4 18 5 23 27 28 21 45 43 29 33 37 49 23 27 51 51 50 53 57 64 70 63 52 52 47 44 43 38 32 24 26 23 21 21 20 16 15 17 16 14 14 11
4 11 7 11 19 12 10 17 20 12 37 40 37 28 41 31 42 57 68 61 62 65 68 65 57 54 53 48 45 42 37 30 29 27 24 21 19 15 18 21 24 21 19 16
2 7 21 12 29 15 3 16 26 22 18 20 23 23 30 32 43 54 52 57 60 61 68 65 60 58 57 53 49 47 42 37 30 32 26 24 20 17 22 27 27 23 24 26
11 5 4 21 35 4 20 5 35 31 26 26 13 27 36 30 30 59 56 60 56 59 70 70 65 63 62 58 53 48 43 41 33 35 30 27 23 21 25 28 28 25 23 27
8 8 6 41 10 5 12 22 31 33 32 36 40 54 51 42 29 40 59 58 60 65 70 72 70 67 65 64 53 49 46 45 39 37 38 32 27 26 28 28 30 30 27 28
7 1 15 18 17 13 16 26 35 39 40 39 44 51 45 44 31 35 52 63 64 69 72 74 74 70 68 58 59 55 50 48 44 38 43 38 35 31 32 30 31 33 32 32
6 9 16 22 13 23 26 31 39 37 41 37 43 43 42 41 38 32 48 61 68 73 77 79 79 72 63 61 59 59 57 52 50 44 46 44 40 36 34 37 36 35 34 33
8 10 22 10 32 40 46 42 48 47 40 35 35 42 38 39 40 38 47 54 71 79 82 85 81 70 68 68 66 64 61 56 57 52 47 50 46 44 40 36 38 39 36 35
3 9 10 29 40 49 41 51 52 56 58 46 34 40 37 36 36 39 49 59 69 78 84 85 83 79 70 70 70 67 66 63 62 60 55 51 52 49 43 38 34 34 32 32
14 26 25 44 50 26 47 51 48 52 49 53 45 39 36 32 29 39 44 55 65 80 86 88 89 86 79 73 74 74 70 69 66 64 61 55 54 51 52 48 41 37 38 36
33 32 31 29 36 57 49 45 45 44 44 48 47 42 37 30 27 37 51 60 62 71 72 88 88 91 86 79 75 75 73 66 67 69 66 61 56 52 45 46 52 52 48 48
28 27 31 42 58 60 47 40 44 43 51 55 53 47 43 36 22 28 37 44 53 60 65 75 82 86 88 86 82 78 78 75 70 68 69 67 61 57 50 43 42 40 49 52
48 47 43 43 49 52 44 40 36 40 47 54 55 55 49 41 31 25 34 41 54 63 68 73 82 81 81 85 84 81 77 72 73 70 70 71 70 63 56 52 50 45 47 50
44 46 39 41 42 41 43 38 35 39 43 47 55 54 48 40 29 18 17 29 41 53 63 67 78 83 76 77 82 82 81 80 78 75 72 71 72 73 66 61 59 57 57 53
43 45 46 48 47 45 48 45 39 38 37 42 53 52 44 40 38 28 14 26 39 42 50 54 60 78 81 76 79 82 85 86 85 84 78 73 74 73 72 68 64 61 60 60
44 38 37 38 41 39 43 44 46 43 41 39 47 45 40 37 38 32 23 14 21 34 40 44 51 65 82 79 77 83 87 90 89 89 86 81 77 73 72 73 71 68 64 61
42 30 28 25 23 33 38 39 46 44 43 36 38 35 33 36 43 35 23 19 14 26 34 39 44 54 69 78 76 81 87 90 89 89 88 85 83 81 79 76 73 72 71 70
48 17 16 17 21 27 34 40 36 33 42 37 30 26 31 41 43 41 33 22 22 19 22 36 41 47 56 66 71 69 76 84 87 89 89 86 82 79 77 76 74 75 75 74
47 28 14 13 23 26 25 25 23 31 38 40 26 19 31 40 44 46 37 30 26 26 21 22 39 51 54 60 59 52 48 64 69 76 81 81 80 79 72 70 70 66 65 66
49 41 34 32 27 26 23 26 25 30 42 35 34 34 43 37 37 36 37 32 28 25 26 23 23 34 45 49 59 56 39 38 45 58 64 74 76 76 72 65 60 57 56 54
61 51 43 39 31 29 31 29 26 27 31 22 25 31 30 33 33 30 31 27 28 24 24 28 33 24 26 52 61 67 62 33 31 50 55 66 70 68 66 65 65 64 61 60
37 52 58 59 53 51 46 44 40 32 23 28 28 33 35 35 40 35 36 33 17 15 19 26 31 37 43 48 64 70 73 82 88 60 52 57 71 60 57 55 54 53 56 55
40 40 37 44 51 51 60 44 38 36 37 35 34 36 40 36 39 39 38 39 34 20 8 17 23 28 34 43 58 55 56 68 89 89 61 64 67 64 55 46 44 46 50 52
44 46 37 39 46 54 61 58 57 50 35 39 46 45 45 41 40 43 42 41 37 31 30 17 11 8 19 40 39 44 54 70 78 79 64 46 46 48 40 36 35 34 35 38
Wind_Direction_500mb
285 280 293 299 210 206 209 214 219 202 222 248 270 306 316 173 159 163 171 175 180 181 184 186 183 180 179 182 184 189 181 172 178 159 129 119 138 110 120 122 128 133 141 144
257 232 255 261 237 222 213 211 218 219 240 235 237 213 175 165 178 177 180 180 183 185 188 188 186 183 184 185 184 190 183 174 170 153 135 117 130 123 121 123 128 130 136 146
216 7 297 258 231 211 219 220 218 229 229 250 273 253 209 183 201 188 185 183 186 189 190 190 189 186 189 185 184 191 185 176 169 160 143 135 121 135 131 132 133 132 146 153
287 280 225 92 30 197 206 220 228 240 255 252 255 265 277 213 205 200 187 186 188 190 193 191 189 188 191 187 186 194 189 182 176 169 161 141 129 126 129 138 133 124 138 181
244 224 326 90 27 356 229 186 21 308 253 254 273 288 270 230 224 215 199 200 198 193 192 189 189 186 192 189 190 195 194 190 184 176 174 159 142 130 134 136 128 123 111 101
248 227 211 48 346 331 247 179 7 354 330 320 312 247 258 256 243 222 208 199 196 191 192 190 189 187 193 192 192 196 197 196 190 182 178 171 158 144 142 136 135 129 112 102
225 263 289 349 328 191 186 33 341 336 322 311 284 237 282 311 272 224 205 196 196 190 192 189 189 188 194 195 194 192 196 199 195 187 178 175 165 154 150 146 146 138 128 116
199 228 239 359 12 55 338 329 334 327 317 305 291 285 289 286 296 221 199 191 193 190 192 192 192 191 195 199 191 189 193 200 197 190 184 182 175 165 159 155 153 147 141 133
230 27 347 331 319 330 339 332 331 324 318 310 300 291 288 275 273 239 212 192 191 193 190 193 194 196 198 195 194 191 194 200 199 195 191 189 185 178 170 165 162 154 150 145
273 73 325 328 32 359 347 340 336 329 323 315 304 299 289 275 262 238 215 202 192 190 193 193 194 198 204 198 193 193 197 200 200 199 196 195 194 192 187 181 176 170 162 158
280 308 336 127 343 344 341 344 344 343 338 324 315 305 294 276 252 232 220 205 197 196 196 197 193 194 202 202 196 195 198 201 201 201 200 199 200 199 199 199 195 188 183 177
342 346 303 287 313 321 327 334 337 341 342 341 329 314 303 284 247 225 214 210 206 203 200 198 195 197 198 202 200 197 196 201 203 202 201 202 203 202 204 203 201 200 203 200
270 289 298 299 311 309 323 324 330 337 342 340 340 330 319 297 247 227 219 216 210 205 204 202 198 199 200 201 202 201 199 199 203 206 203 202 203 203 204 201 201 201 200 199
308 291 282 292 296 309 317 318 327 334 345 351 347 344 336 321 260 229 221 226 218 211 205 204 203 204 204 201 202 205 204 205 202 204 207 206 206 205 203 204 205 205 203 203
287 315 299 298 294 300 308 314 325 334 342 346 352 350 349 341 298 243 233 226 216 210 206 205 205 207 208 206 204 203 206 206 206 206 209 210 210 210 209 208 209 211 212 210
296 295 295 296 294 296 298 304 315 325 334 340 344 348 346 342 331 278 235 217 212 213 214 211 209 210 210 209 207 206 209 211 209 209 210 211 214 214 214 215 216 215 219 218
293 292 293 282 285 286 290 293 299 312 319 332 338 338 340 340 341 334 238 225 228 231 223 217 213 211 210 212 208 207 209 212 212 213 212 213 214 217 218 220 222 223 226 226
300 286 278 275 274 278 283 285 293 301 308 323 335 333 332 343 347 348 318 241 230 229 232 232 220 215 213 212 208 207 211 214 213 213 215 215 217 219 222 224 226 229 231 233
305 299 295 270 263 270 275 284 289 296 303 314 329 325 325 336 345 347 336 309 245 241 241 231 229 224 218 213 210 209 214 217 216 216 217 218 219 221 223 226 228 231 232 233
327 284 298 279 274 269 274 284 290 292 299 306 323 316 332 344 355 350 331 329 286 238 235 227 229 226 223 219 214 212 217 220 221 221 222 222 222 224 228 229 231 234 235 235
349 304 285 295 289 287 289 291 289 291 301 303 310 314 337 346 347 339 334 293 282 293 266 239 229 228 227 223 221 214 217 221 223 224 225 227 228 227 230 234 236 237 239 240
14 29 7 328 301 298 308 306 302 292 296 302 294 297 320 327 331 335 322 312 296 279 293 270 238 229 227 229 219 209 220 226 227 227 227 230 232 232 231 234 238 242 242 243
27 29 26 12 344 327 317 314 303 296 293 292 269 275 297 307 312 319 321 315 316 294 269 266 266 242 228 219 214 203 208 222 241 245 242 237 234 235 235 233 235 240 242 240
22 23 22 17 17 12 352 331 320 312 298 246 250 273 283 300 305 303 309 309 305 301 276 264 254 249 233 208 207 211 207 215 275 280 267 260 251 243 241 240 237 237 237 240
16 22 22 18 14 14 357 339 329 326 313 261 252 262 274 286 293 289 297 295 289 279 245 241 246 246 221 208 208 215 225 217 219 257 289 271 262 243 234 232 232 234 236 235
17 20 20 18 14 5 4 0 346 331 319 303 282 271 275 276 277 290 278 288 270 265 234 222 217 220 214 210 214 211 212 207 199 219 264 278 257 243 229 222 224 226 230 234
22 24 26 20 19 24 20 23 22 10 338 312 293 286 284 277 267 269 270 259 271 261 246 226 194 181 209 213 208 198 204 212 209 209 221 258 237 226 211 207 211 216 221 224
Wind_Speed_850mb
28 24 14 5 41 48 49 39 30 21 44 43 29 20 1 14 34 40 44 48 54 58 56 54 52 45 36 34 31 26 18 15 13 14 11 12 12 16 17 19 22 24 26 25
16 15 15 16 13 37 46 45 39 22 34 36 24 5 9 24 38 45 48 50 53 58 59 59 54 49 42 38 36 30 21 16 17 18 15 13 16 15 18 20 19 23 24 24
26 8 10 18 28 22 27 43 41 36 32 12 17 17 18 33 45 54 53 55 60 66 67 63 55 52 48 41 40 34 26 19 22 21 18 16 16 16 16 15 14 17 21 23
5 4 18 5 23 27 28 21 45 43 29 33 37 49 23 27 51 51 50 53 57 64 70 63 52 52 47 44 43 38 32 24 26 23 21 21 20 16 15 17 16 14 14 11
4 11 7 11 19 12 10 17 20 12 37 40 37 28 41 31 42 57 68 61 62 65 68 65 57 54 53 48 45 42 37 30 29 27 24 21 19 15 18 21 24 21 19 16
2 7 21 12 29 15 3 16 26 22 18 20 23 23 30 32 43 54 52 57 60 61 68 65 60 58 57 53 49 47 42 37 30 32 26 24 20 17 22 27 27 23 24 26
11 5 4 21 35 4 20 5 35 31 26 26 13 27 36 30 30 59 56 60 56 59 70 70 65 63 62 58 53 48 43 41 33 35 30 27 23 21 25 28 28 25 23 27
8 8 6 41 10 5 12 22 31 33 32 36 40 54 51 42 29 40 59 58 60 65 70 72 70 67 65 64 53 49 46 45 39 37 38 32 27 26 28 28 30 30 27 28
7 1 15 18 17 13 16 26 35 39 40 39 44 51 45 44 31 35 52 63 64 69 72 74 74 70 68 58 59 55 50 48 44 38 43 38 35 31 32 30 31 33 32 32
6 9 16 22 13 23 26 31 39 37 41 37 43 43 42 41 38 32 48 61 68 73 77 79 79 72 63 61 59 59 57 52 50 44 46 44 40 36 34 37 36 35 34 33
8 10 22 10 32 40 46 42 48 47 40 35 35 42 38 39 40 38 47 54 71 79 82 85 81 70 68 68 66 64 61 56 57 52 47 50 46 44 40 36 38 39 36 35
3 9 10 29 40 49 41 51 52 56 58 46 34 40 37 36 36 39 49 59 69 78 84 85 83 79 70 70 70 67 66 63 62 60 55 51 52 49 43 38 34 34 32 32
14 26 25 44 50 26 47 51 48 52 49 53 45 39 36 32 29 39 44 55 65 80 86 88 89 86 79 73 74 74 70 69 66 64 61 55 54 51 52 48 41 37 38 36
33 32 31 29 36 57 49 45 45 44 44 48 47 42 37 30 27 37 51 60 62 71 72 88 88 91 86 79 75 75 73 66 67 69 66 61 56 52 45 46 52 52 48 48
28 27 31 42 58 60 47 40 44 43 51 55 53 47 43 36 22 28 37 44 53 60 65 75 82 86 88 86 82 78 78 75 70 68 69 67 61 57 50 43 42 40 49 52
48 47 43 43 49 52 44 40 36 40 47 54 55 55 49 41 31 25 34 41 54 63 68 73 82 81 81 85 84 81 77 72 73 70 70 71 70 63 56 52 50 45 47 50
44 46 39 41 42 41 43 38 35 39 43 47 55 54 48 40 29 18 17 29 41 53 63 67 78 83 76 77 82 82 81 80 78 75 72 71 72 73 66 61 59 57 57 53
43 45 46 48 47 45 48 45 39 38 37 42 53 52 44 40 38 28 14 26 39 42 50 54 60 78 81 76 79 82 85 86 85 84 78 73 74 73 72 68 64 61 60 60
44 38 37 38 41 39 43 44 46 43 41 39 47 45 40 37 38 32 23 14 21 34 40 44 51 65 82 79 77 83 87 90 89 89 86 81 77 73 72 73 71 68 64 61
42 30 28 25 23 33 38 39 46 44 43 36 38 35 33 36 43 35 23 19 14 26 34 39 44 54 69 78 76 81 87 90 89 89 88 85 83 81 79 76 73 72 71 70
48 17 16 17 21 27 34 40 36 33 42 37 30 26 31 41 43 41 33 22 22 19 22 36 41 47 56 66 71 69 76 84 87 89 89 86 82 79 77 76 74 75 75 74
47 28 14 13 23 26 25 25 23 31 38 40 26 19 31 40 44 46 37 30 26 26 21 22 39 51 54 60 59 52 48 64 69 76 81 81 80 79 72 70 70 66 65 66
49 41 34 32 27 26 23 26 25 30 42 35 34 34 43 37 37 36 37 32 28 25 26 23 23 34 45 49 59 56 39 38 45 58 64 74 76 76 72 65 60 57 56 54
61 51 43 39 31 29 31 29 26 27 31 22 25 31 30 33 33 30 31 27 28 24 24 28 33 24 26 52 61 67 62 33 31 50 55 66 70 68 66 65 65 64 61 60
37 52 58 59 53 51 46 44 40 32 23 28 28 33 35 35 40 35 36 33 17 15 19 26 31 37 43 48 64 70 73 82 88 60 52 57 71 60 57 55 54 53 56 55
40 40 37 44 51 51 60 44 38 36 37 35 34 36 40 36 39 39 38 39 34 20 8 17 23 28 34 43 58 55 56 68 89 89 61 64 67 64 55 46 44 46 50 52
44 46 37 39 46 54 61 58 57 50 35 39 46 45 45 41 40 43 42 41 37 31 30 17 11 8 19 40 39 44 54 70 78 79 64 46 46 48 40 36 35 34 35 38
Wind_Direction_850mb
285 280 293 299 210 206 209 214 219 202 222 248 270 306 316 173 159 163 171 175 180 181 184 186 183 180 179 182 184 189 181 172 178 159 129 119 138 110 120 122 128 133 141 144
257 232 255 261 237 222 213 211 218 219 240 235 237 213 175 165 178 177 180 180 183 185 188 188 186 183 184 185 184 190 183 174 170 153 135 117 130 123 121 123 128 130 136 146
216 7 297 258 231 211 219 220 218 229 229 250 273 253 209 183 201 188 185 183 186 189 190 190 189 186 189 185 184 191 185 176 169 160 143 135 121 135 131 132 133 132 146 153
287 280 225 92 30 197 206 220 228 240 255 252 255 265 277 213 205 200 187 186 188 190 193 191 189 188 191 187 186 194 189 182 176 169 161 141 129 126 129 138 133 124 138 181
244 224 326 90 27 356 229 186 21 308 253 254 273 288 270 230 224 215 199 200 198 193 192 189 189 186 192 189 190 195 194 190 184 176 174 159 142 130 134 136 128 123 111 101
248 227 211 48 346 331 247 179 7 354 330 320 312 247 258 256 243 222 208 199 196 191 192 190 189 187 193 192 192 196 197 196 190 182 178 171 158 144 142 136 135 129 112 102
225 263 289 349 328 191 186 33 341 336 322 311 284 237 282 311 272 224 205 196 196 190 192 189 189 188 194 195 194 192 196 199 195 187 178 175 165 154 150 146 146 138 128 116
199 228 239 359 12 55 338 329 334 327 317 305 291 285 289 286 296 221 199 191 193 190 192 192 192 191 195 199 191 189 193 200 197 190 184 182 175 165 159 155 153 147 141 133
230 27 347 331 319 330 339 332 331 324 318 310 300 291 288 275 273 239 212 192 191 193 190 193 194 196 198 195 194 191 194 200 199 195 191 189 185 178 170 165 162 154 150 145
273 73 325 328 32 359 347 340 336 329 323 315 304 299 289 275 262 238 215 202 192 190 193 193 194 198 204 198 193 193 197 200 200 199 196 195 194 192 187 181 176 170 162 158
280 308 336 127 343 344 341 344 344 343 338 324 315 305 294 276 252 232 220 205 197 196 196 197 193 194 202 202 196 195 198 201 201 201 200 199 200 199 199 199 195 188 183 177
342 346 303 287 313 321 327 334 337 341 342 341 329 314 303 284 247 225 214 210 206 203 200 198 195 197 198 202 200 197 196 201 203 202 201 202 203 202 204 203 201 200 203 200
270 289 298 299 311 309 323 324 330 337 342 340 340 330 319 297 247 227 219 216 210 205 204 202 198 199 200 201 202 201 199 199 203 206 203 202 203 203 204 201 201 201 200 199
308 291 282 292 296 309 317 318 327 334 345 351 347 344 336 321 260 229 221 226 218 211 205 204 203 204 204 201 202 205 204 205 202 204 207 206 206 205 203 204 205 205 203 203
287 315 299 298 294 300 308 314 325 334 342 346 352 350 349 341 298 243 233 226 216 210 206 205 205 207 208 206 204 203 206 206 206 206 209 210 210 210 209 208 209 211 212 210
296 295 295 296 294 296 298 304 315 325 334 340 344 348 346 342 331 278 235 217 212 213 214 211 209 210 210 209 207 206 209 211 209 209 210 211 214 214 214 215 216 215 219 218
293 292 293 282 285 286 290 293 299 312 319 332 338 338 340 340 341 334 238 225 228 231 223 217 213 211 210 212 208 207 209 212 212 213 212 213 214 217 218 220 222 223 226 226
300 286 278 275 274 278 283 285 293 301 308 323 335 333 332 343 347 348 318 241 230 229 232 232 220 215 213 212 208 207 211 214 213 213 215 215 217 219 222 224 226 229 231 233
305 299 295 270 263 270 275 284 289 296 303 314 329 325 325 336 345 347 336 309 245 241 241 231 229 224 218 213 210 209 214 217 216 216 217 218 219 221 223 226 228 231 232 233
327 284 298 279 274 269 274 284 290 292 299 306 323 316 332 344 355 350 331 329 286 238 235 227 229 226 223 219 214 212 217 220 221 221 222 222 222 224 228 229 231 234 235 235
349 304 285 295 289 287 289 291 289 291 301 303 310 314 337 346 347 339 334 293 282 293 266 239 229 228 227 223 221 214 217 221 223 224 225 227 228 227 230 234 236 237 239 240
14 29 7 328 301 298 308 306 302 292 296 302 294 297 320 327 331 335 322 312 296 279 293 270 238 229 227 229 219 209 220 226 227 227 227 230 232 232 231 234 238 242 242 243
27 29 26 12 344 327 317 314 303 296 293 292 269 275 297 307 312 319 321 315 316 294 269 266 266 242 228 219 214 203 208 222 241 245 242 237 234 235 235 233 235 240 242 240
22 23 22 17 17 12 352 331 320 312 298 246 250 273 283 300 305 303 309 309 305 301 276 264 254 249 233 208 207 211 207 215 275 280 267 260 251 243 241 240 237 237 237 240
16 22 22 18 14 14 357 339 329 326 313 261 252 262 274 286 293 289 297 295 289 279 245 241 246 246 221 208 208 215 225 217 219 257 289 271 262 243 234 232 232 234 236 235
17 20 20 18 14 5 4 0 346 331 319 303 282 271 275 276 277 290 278 288 270 265 234 222 217 220 214 210 214 211 212 207 199 219 264 278 257 243 229 222 224 226 230 234
22 24 26 20 19 24 20 23 22 10 338 312 293 286 284 277 267 269 270 259 271 261 246 226 194 181 209 213 208 198 204 212 209 209 221 258 237 226 211 207 211 216 221 224